Showing default

HULIANWANG DIGUI-37, 64958

Orbit data source: Space-Track

HULIANWANG DIGUI-37, 64958 is a payload satellite owned by Zhongguo Xingwang (CN) in LEO that was launched on Sun, 27 Jul 2025 UTC via a CHANG ZHENG 6A launch vehicle from the Taiyaun Space Center, China (TSC). Payload-class satellites include a variety of spacecraft equipped with specific instruments for various scientific and technological missions. These include communications satellites like Starlink; space stations such as the ISS; scientific satellites like the Hubble; Earth observation satellites from companies like Planet Labs, Umbra, and HawkEye 360; GPS; miniature CubeSats for education and research; and military/defense satellites.

Loading next visibility...
Identifier
64958, 2025-159C
Orbit
LEO
Country
Flag of CNCN / PRC
Related business
Manufacturer
CAST
Mission
Operational Civil Communications
Bus & Motor
XINGWANG C, Unknown motor
Mass
~700 kg wet, ~700 kg dry
Launch date (UTC)
2025-07-27 (1 year ago)
Launch vehicle
CHANG ZHENG 6A
Launch site
Taiyaun Space Center, China (TSC)
Object type
Payload
Rocket body
Debris
Shape & HBR
Box + 2 Pan, 5.0 m
Radar Cross Section
5.935 m², Large (>1 m²)

Expand to show TLE details & history
Last TLE update: 5 hours ago

TLE from 5 hours ago
0 HULIANWANG DIGUI-37
1 64958U 25159C   26265.92394449 -.00000067  00000-0 -18954-3 0  9994
2 64958  86.4864 249.2210 0002067  87.1867 272.9504 13.24401219 56065
Epoch: 2026-09-22T22:10Z
TLE epoch observation values (Epoch: 2026-09-22T22:10:28.803Z)
Latitude
-0°
Longitude
-85.18146°
Altitude
1,170.77 km
Speed
7.268 km/s
True Right ascension
16h 36m 53s
True Declination
0° 00' 00"
Sunlit
Object was in daylight at epoch
Visualization orbit readout
Latitude
Unknown
Longitude
Unknown
Altitude
Unknown
Speed
Unknown
Apparent Right ascension
Unknown
Apparent Declination
Unknown
Sunlit
N/A
Visualization observer readout
Local Sidereal Time
20:12:55
Azimuth
Unknown
Elevation
Unknown
Doppler factor
Unknown
Orbital elements
Apogee altitude
1,166.635 km
Perigee altitude
1,163.517 km
Semi-major axis
7,543.213 km
Eccentricity
0.00021
Inclination
86.4864°
RAAN
249.221°
Arg. of periapsis
87.1867°
True anomaly
272.92675°
Mean anomaly
272.9504°
Eccentric anomaly
272.93857°
Mean motion
3.3129 °/min
Orbital period
108.67 mins
BSTAR
-0.00018954
Loading maneuver chart data...
Computing Atmospheric mass density...
Loading historical data...
Loading historical data...
Loading historical data...
Loading historical data...
Loading historical data...
Loading historical data...
Loading historical data...

Documentation

Showing up to 5 results
|